Volver al catálogo

KUIPER-00617

ActivoComunicacionesLEO
NORAD 69776·PAYLOAD·🇺🇸 United States

Lanzado Jul 2, 2026 desde Cape Canaveral Space Force Station

Loading…

Próximos Pases (próximas 24 horas)

TLE

ActualizadoSource: CelesTrak SupGP

Época: Sep 14, 2026, 17:04 UTC

1 69776C 26151P   26257.71122685  .00000520  00000+0  68150-4 0  2571
2 69776  51.8989 249.7964 0000918 168.2936 129.5652 14.79883803    13

Sigue KUIPER-00617 en tiempo real con AllMySat

Download on the App Store